Year,Month,Day,Hour,Minute,Value (Times are PST for temperature in C)
2013,03,13,09,54,9.60
2013,03,13,09,55,9.70
2013,03,13,09,56,9.70
2013,03,13,09,57,9.70
2013,03,13,09,58,9.80
2013,03,13,09,59,9.90
2013,03,13,10,00,9.90
2013,03,13,10,01,9.90
2013,03,13,10,02,9.90
2013,03,13,10,03,10.10
2013,03,13,10,04,10.10
2013,03,13,10,05,10.10
2013,03,13,10,06,10.10
2013,03,13,10,07,10.10
2013,03,13,10,08,10.20
2013,03,13,10,09,10.20
2013,03,13,10,10,10.20
2013,03,13,10,11,10.20
2013,03,13,10,12,10.10
2013,03,13,10,13,10.10
2013,03,13,10,14,10.10
2013,03,13,10,15,10.10
2013,03,13,10,16,10.10
2013,03,13,10,17,10.10
2013,03,13,10,18,10.20
2013,03,13,10,19,10.20
2013,03,13,10,20,10.20
2013,03,13,10,21,10.30
2013,03,13,10,22,10.30
2013,03,13,10,23,10.40
2013,03,13,10,24,10.40
2013,03,13,10,25,10.40
2013,03,13,10,26,10.50
2013,03,13,10,27,10.60
2013,03,13,10,28,10.60
2013,03,13,10,29,10.60
2013,03,13,10,30,10.60
2013,03,13,10,31,10.60
2013,03,13,10,32,10.70
2013,03,13,10,33,10.70
2013,03,13,10,34,10.70
2013,03,13,10,35,10.70
2013,03,13,10,36,10.70
2013,03,13,10,37,10.70
2013,03,13,10,38,10.60
2013,03,13,10,39,10.60
2013,03,13,10,40,10.60
2013,03,13,10,41,10.60
2013,03,13,10,42,10.70
2013,03,13,10,43,10.70
2013,03,13,10,44,10.80
2013,03,13,10,45,10.90
2013,03,13,10,46,11.00
2013,03,13,10,47,11.10
2013,03,13,10,48,11.20
2013,03,13,10,49,11.20
2013,03,13,10,50,11.30
2013,03,13,10,51,11.30
2013,03,13,10,52,11.30
2013,03,13,10,53,11.40
2013,03,13,10,54,11.40
2013,03,13,10,55,11.20
2013,03,13,10,56,11.00
2013,03,13,10,57,10.90
2013,03,13,10,58,10.80
2013,03,13,10,59,10.70
2013,03,13,11,00,10.70
2013,03,13,11,01,10.60
2013,03,13,11,02,10.60
2013,03,13,11,03,10.50
2013,03,13,11,04,10.40
2013,03,13,11,05,10.40
2013,03,13,11,06,10.30
2013,03,13,11,07,10.20
2013,03,13,11,08,10.20
2013,03,13,11,09,10.10
2013,03,13,11,10,10.10
2013,03,13,11,11,10.10
2013,03,13,11,12,10.10
2013,03,13,11,13,10.10
2013,03,13,11,14,10.10
2013,03,13,11,15,10.10
2013,03,13,11,16,10.10
2013,03,13,11,17,10.10
2013,03,13,11,18,10.10
2013,03,13,11,19,10.10
2013,03,13,11,20,10.10
2013,03,13,11,21,10.10
2013,03,13,11,22,10.10
2013,03,13,11,23,10.10
2013,03,13,11,24,10.10
2013,03,13,11,25,10.00
2013,03,13,11,26,9.90
2013,03,13,11,27,9.90
2013,03,13,11,28,10.00
2013,03,13,11,29,10.00
2013,03,13,11,30,9.90
2013,03,13,11,31,10.00
2013,03,13,11,32,10.10
2013,03,13,11,33,10.10
2013,03,13,11,34,10.10
2013,03,13,11,35,10.10
2013,03,13,11,36,10.10
2013,03,13,11,37,10.10
2013,03,13,11,38,10.10
2013,03,13,11,39,10.10
2013,03,13,11,40,10.10
2013,03,13,11,41,10.10
2013,03,13,11,42,10.10
2013,03,13,11,43,10.00
2013,03,13,11,44,9.90
2013,03,13,11,45,9.90
2013,03,13,11,46,9.90
2013,03,13,11,47,9.90
2013,03,13,11,48,9.90
2013,03,13,11,49,9.90
2013,03,13,11,50,9.90
2013,03,13,11,51,9.90
2013,03,13,11,52,9.90
2013,03,13,11,53,9.90
2013,03,13,11,54,9.90
2013,03,13,11,55,9.90
2013,03,13,11,56,9.90
2013,03,13,11,57,9.90
2013,03,13,11,58,9.90
2013,03,13,11,59,9.90
2013,03,13,12,00,9.80
2013,03,13,12,01,9.80
2013,03,13,12,02,9.80
2013,03,13,12,03,9.80
2013,03,13,12,04,9.80
2013,03,13,12,05,9.80
2013,03,13,12,06,9.80
2013,03,13,12,07,9.80
2013,03,13,12,08,9.80
2013,03,13,12,09,9.80
2013,03,13,12,10,9.80
2013,03,13,12,11,9.80
2013,03,13,12,12,9.80
2013,03,13,12,13,9.80
2013,03,13,12,14,9.70
2013,03,13,12,15,9.70
2013,03,13,12,16,9.70
2013,03,13,12,17,9.70
2013,03,13,12,18,9.70
2013,03,13,12,19,9.70
2013,03,13,12,20,9.80
2013,03,13,12,21,9.80
2013,03,13,12,22,9.70
2013,03,13,12,23,9.70
2013,03,13,12,24,9.70
2013,03,13,12,25,9.70
2013,03,13,12,26,9.70
2013,03,13,12,27,9.70
2013,03,13,12,28,9.70
2013,03,13,12,29,9.70
2013,03,13,12,30,9.70
2013,03,13,12,31,9.70
2013,03,13,12,32,9.60
2013,03,13,12,33,9.60
2013,03,13,12,34,9.60
2013,03,13,12,35,9.60
2013,03,13,12,36,9.60
2013,03,13,12,37,9.60
2013,03,13,12,38,9.60
2013,03,13,12,39,9.50
2013,03,13,12,40,9.50
2013,03,13,12,41,9.50
2013,03,13,12,42,9.50
2013,03,13,12,43,9.50
2013,03,13,12,44,9.50
2013,03,13,12,45,9.50
2013,03,13,12,46,9.50
2013,03,13,12,47,9.50
2013,03,13,12,48,9.50
2013,03,13,12,49,9.50
2013,03,13,12,50,9.50
2013,03,13,12,51,9.50
2013,03,13,12,52,9.50
2013,03,13,12,53,9.40
2013,03,13,12,54,9.40
2013,03,13,12,55,9.40
2013,03,13,12,56,9.40
2013,03,13,12,57,9.40
2013,03,13,12,58,9.30
2013,03,13,12,59,9.30
2013,03,13,13,00,9.40
2013,03,13,13,01,9.40
2013,03,13,13,02,9.40
2013,03,13,13,03,9.40
2013,03,13,13,04,9.40
2013,03,13,13,05,9.40
2013,03,13,13,06,9.40
2013,03,13,13,07,9.40
2013,03,13,13,08,9.40
2013,03,13,13,09,9.40
2013,03,13,13,10,9.40
2013,03,13,13,11,9.40
2013,03,13,13,12,9.40
2013,03,13,13,13,9.40
2013,03,13,13,14,9.40
2013,03,13,13,15,9.50
2013,03,13,13,16,9.50
2013,03,13,13,17,9.50
2013,03,13,13,18,9.60
2013,03,13,13,19,9.60
2013,03,13,13,20,9.70
2013,03,13,13,21,9.70
2013,03,13,13,22,9.70
2013,03,13,13,23,9.60
2013,03,13,13,24,9.60
2013,03,13,13,25,9.60
2013,03,13,13,26,9.50
2013,03,13,13,27,9.50
2013,03,13,13,28,9.50
2013,03,13,13,29,9.50
2013,03,13,13,30,9.50
2013,03,13,13,31,9.50
2013,03,13,13,32,9.50
2013,03,13,13,33,9.60
2013,03,13,13,34,9.50
2013,03,13,13,35,9.50
2013,03,13,13,36,9.50
2013,03,13,13,37,9.50
2013,03,13,13,38,9.50
2013,03,13,13,39,9.50
2013,03,13,13,40,9.50
2013,03,13,13,41,9.50
2013,03,13,13,42,9.50
2013,03,13,13,43,9.50
2013,03,13,13,44,9.50
2013,03,13,13,45,9.50
2013,03,13,13,46,9.50
2013,03,13,13,47,9.50
2013,03,13,13,48,9.50
2013,03,13,13,49,9.50
2013,03,13,13,50,9.50
2013,03,13,13,51,9.50
2013,03,13,13,52,9.50
2013,03,13,13,53,9.50
2013,03,13,13,54,9.50
2013,03,13,13,55,9.50
2013,03,13,13,56,9.50
2013,03,13,13,57,9.50
2013,03,13,13,58,9.50
2013,03,13,13,59,9.50
2013,03,13,14,00,9.50
2013,03,13,14,01,9.50
2013,03,13,14,02,9.50
2013,03,13,14,03,9.50
2013,03,13,14,04,9.50
2013,03,13,14,05,9.50
2013,03,13,14,06,9.50
2013,03,13,14,07,9.50
2013,03,13,14,08,9.40
2013,03,13,14,09,9.40
2013,03,13,14,10,9.40
2013,03,13,14,11,9.40
2013,03,13,14,12,9.40
2013,03,13,14,13,9.40
2013,03,13,14,14,9.40
2013,03,13,14,15,9.40
2013,03,13,14,16,9.40
2013,03,13,14,17,9.40
2013,03,13,14,18,9.40
2013,03,13,14,19,9.40
2013,03,13,14,20,9.40
2013,03,13,14,21,9.40
2013,03,13,14,22,9.40
2013,03,13,14,23,9.40
